Torna al catalogo

GOKTURK 2

AttivoMilitareSSO
NORAD 39030·PAYLOAD·🇹🇷 Turkey

Lanciato Dec 18, 2012 da Jiuquan Satellite Launch Center

Loading…

Prossimi Passaggi (prossime 24 ore)

TLE

AggiornatoSource: Space-Track

Epoca: Sep 14, 2026, 14:12 UTC

1 39030U 12073A   26257.59172579  .00000593  00000-0  93775-4 0  9997
2 39030  97.6781  90.5393 0002117  72.4425 287.7016 14.75613871737695

Traccia GOKTURK 2 in tempo reale con AllMySat

Download on the App Store